Tracking 30692 objects as of 16-Jun-2025
HD Live streaming from Space Station
objects crossing your sky now

STARLINK-31135

Track STARLINK-31135 now!
10-day predictions
STARLINK-31135 is classified as:


NORAD ID: 58771
Int'l Code: 2024-011G
Perigee: 558.2 km
Apogee: 559.6 km
Inclination: 53.2 °
Period: 95.7 minutes
Semi major axis: 6929 km
RCS: Unknown
Launch date: January 14, 2024
Source: United States (US)
Launch site: AIR FORCE WESTERN TEST RANGE (AFWTR)
Your satellite tracking list
Your tracking list is empty




NASA's NSSDC Master Catalog

Two Line Element Set (TLE):
1 58771U 24011G   25167.25993495 -.00000490  00000-0 -14888-4 0  9991
2 58771  53.1585 166.6567 0001037  75.8380 284.2725 15.04922344 79545
Source of the keplerian elements: AFSPC